KC4JES Saint Augustine FL US current weather conditions

sailwx.info

Wind from 072

Air temperature 25.6° C
Dewpoint 18.0° C

Last reported at 2020-Oct-01 14:47 UTC.
Time now 2020-Oct-01 15:19 UTC

Location: N 30°02' W 081°23'.
View on Google Maps.

See reports from other nearby stations

  
Tides and Currents Weather Stations Pressure Air Temp Water Temp Dewpoint Dewpoint Depression Visibility Wind Speed Wind Dir Waves Ship Positions
date/time (UTC)wind fromknots sea level pressurealtimeterstation pressurevisibilityair tempwater tempwave heightnotes
2020-Oct-01 14:47 072 25.6
2020-Oct-01 14:42 075 0 gusting 0 25.0
2020-Oct-01 14:37 353 25.0
2020-Oct-01 14:32 097 0 gusting 0 25.0
2020-Oct-01 14:27 323 1 gusting 1 24.4
2020-Oct-01 14:22 281 0 gusting 0 24.4
2020-Oct-01 14:17 021 0 gusting 0 24.4
2020-Oct-01 14:12 281 23.9
2020-Oct-01 14:07 033 0 gusting 0 23.9
2020-Oct-01 14:02 296 0 gusting 0 23.3
2020-Oct-01 13:57 283 2 gusting 2 23.3
2020-Oct-01 13:52 298 0 gusting 0 22.8
2020-Oct-01 13:47 295 22.8
2020-Oct-01 13:41 286 0 gusting 1 22.8
2020-Oct-01 13:36 279 0 gusting 1 22.2
2020-Oct-01 13:31 255 0 gusting 1 21.7
2020-Oct-01 13:26 309 0 gusting 1 21.7
2020-Oct-01 13:21 294 0 gusting 1 21.1
2020-Oct-01 13:16 286 0 gusting 1 21.1
2020-Oct-01 13:11 289 0 gusting 0 20.6
2020-Oct-01 13:06 286 0 gusting 0 20.6
2020-Oct-01 13:01 279 20.0
2020-Oct-01 12:56 289 0 gusting 0 20.0
2020-Oct-01 12:51 288 0 gusting 0 19.4
2020-Oct-01 12:46 279 0 gusting 0 19.4
2020-Oct-01 12:40 267 0 gusting 1 18.3
2020-Oct-01 12:35 242 0 gusting 0 18.3
2020-Oct-01 12:30 241 0 gusting 1 17.8
2020-Oct-01 12:24 231 0 gusting 0 17.8
2020-Oct-01 12:17 230 17.2
2020-Oct-01 12:12 230 0 gusting 0 16.7
2020-Oct-01 12:07 230 16.7
2020-Oct-01 12:02 230 16.7
2020-Oct-01 11:57 230 0 gusting 0 16.1
2020-Oct-01 11:51 230 0 gusting 0 16.1
2020-Oct-01 11:46 230 0 gusting 0 15.6
2020-Oct-01 11:41 229 0 gusting 0 15.6
2020-Oct-01 11:36 229 0 gusting 0 15.6
2020-Oct-01 11:31 229 15.6
2020-Oct-01 11:26 229 0 gusting 0 15.6
2020-Oct-01 11:21 230 0 gusting 1 15.6
2020-Oct-01 11:15 227 0 gusting 0 15.6
2020-Oct-01 11:10 227 0 gusting 0 15.6
2020-Oct-01 11:05 226 0 gusting 0 15.6
2020-Oct-01 11:00 226 0 gusting 1 15.6
2020-Oct-01 10:55 225 15.6
2020-Oct-01 10:50 225 15.6
2020-Oct-01 10:45 226 15.6
2020-Oct-01 10:40 226 15.6
2020-Oct-01 10:35 224 15.6
2020-Oct-01 10:30 225 15.6
2020-Oct-01 10:24 225 15.0
2020-Oct-01 10:19 224 15.0
2020-Oct-01 10:14 224 15.0
2020-Oct-01 10:09 224 15.0
2020-Oct-01 10:04 224 15.0
2020-Oct-01 09:59 224 15.0
2020-Oct-01 09:54 224 15.0
2020-Oct-01 09:49 224 15.0
2020-Oct-01 09:44 224 15.6
2020-Oct-01 09:39 224 15.6
2020-Oct-01 09:34 224 15.6
2020-Oct-01 09:29 224 15.6
2020-Oct-01 09:24 224 15.6
2020-Oct-01 09:19 224 15.6
2020-Oct-01 09:14 224 0 gusting 0 15.6
2020-Oct-01 09:08 224 0 gusting 1 15.6
2020-Oct-01 09:03 208 0 gusting 0 15.6
2020-Oct-01 08:58 208 0 gusting 0 15.0
2020-Oct-01 08:53 208 15.0
2020-Oct-01 08:48 208 15.0
2020-Oct-01 08:43 208 15.0
2020-Oct-01 08:38 208 15.0
2020-Oct-01 08:33 208 15.0
2020-Oct-01 08:28 208 15.0
2020-Oct-01 08:23 208 0 gusting 0 15.0
2020-Oct-01 08:18 207 15.0
2020-Oct-01 08:13 207 15.0
2020-Oct-01 08:08 207 0 gusting 0 15.0
2020-Oct-01 08:03 206 15.0
2020-Oct-01 07:57 204 15.0
2020-Oct-01 07:52 204 0 gusting 0 15.0
2020-Oct-01 07:47 166 0 gusting 0 15.0
2020-Oct-01 07:42 178 15.0
2020-Oct-01 07:37 094 15.0
2020-Oct-01 07:32 136 15.0
2020-Oct-01 07:27 134 15.0
2020-Oct-01 07:22 133 15.0
2020-Oct-01 07:17 132 15.0
2020-Oct-01 07:12 132 15.0
2020-Oct-01 07:07 132 15.0
2020-Oct-01 07:02 132 14.4
2020-Oct-01 06:56 132 14.4
2020-Oct-01 06:50 132 14.4
2020-Oct-01 06:45 132 14.4
2020-Oct-01 06:40 132 14.4
2020-Oct-01 06:35 132 14.4
2020-Oct-01 06:30 132 14.4
2020-Oct-01 06:25 132 14.4
2020-Oct-01 06:20 132 15.0
2020-Oct-01 06:15 132 15.0
2020-Oct-01 06:10 132 15.0
2020-Oct-01 06:05 132 15.0
2020-Oct-01 06:00 132 15.0
2020-Oct-01 05:55 132 15.0
2020-Oct-01 05:50 132 15.0
2020-Oct-01 05:44 132 15.0
2020-Oct-01 05:39 132 15.0
2020-Oct-01 05:34 132 15.0
2020-Oct-01 05:29 132 15.0
2020-Oct-01 05:24 132 15.0
2020-Oct-01 05:18 132 15.0
2020-Oct-01 05:14 132 15.0
2020-Oct-01 05:08 132 15.0
2020-Oct-01 05:03 132 15.0
2020-Oct-01 04:58 132 15.0
2020-Oct-01 04:53 132 15.0
2020-Oct-01 04:48 132 15.0
2020-Oct-01 04:43 132 15.0
2020-Oct-01 04:38 132 15.0
2020-Oct-01 04:33 132 15.0
2020-Oct-01 04:27 132 15.6
2020-Oct-01 04:22 132 15.6
2020-Oct-01 04:17 132 15.6
2020-Oct-01 04:12 132 15.6
2020-Oct-01 04:07 132 15.6
2020-Oct-01 04:02 132 15.6
2020-Oct-01 03:57 132 15.6
2020-Oct-01 03:52 132 15.6
2020-Oct-01 03:47 132 15.6
2020-Oct-01 03:42 132 15.6
2020-Oct-01 03:36 132 15.6
2020-Oct-01 03:31 132 15.6
2020-Oct-01 03:26 132 15.6
2020-Oct-01 03:21 132 15.6
2020-Oct-01 03:16 132 15.6
2020-Oct-01 03:11 132 15.6
2020-Oct-01 03:06 132 15.6
2020-Oct-01 03:01 132 15.6
2020-Oct-01 02:56 132 15.6
2020-Oct-01 02:51 132 16.1
2020-Oct-01 02:46 132 16.1
2020-Oct-01 02:41 132 16.1
2020-Oct-01 02:36 132 16.1
2020-Oct-01 02:31 132 16.1
2020-Oct-01 02:26 132 16.1
2020-Oct-01 02:21 132 16.1
2020-Oct-01 02:16 132 16.1
2020-Oct-01 02:11 132 16.1
2020-Oct-01 02:06 132 16.1
2020-Oct-01 02:01 132 16.1
2020-Oct-01 01:55 132 16.7
2020-Oct-01 01:50 132 16.7
2020-Oct-01 01:45 132 16.7
2020-Oct-01 01:40 132 16.7
2020-Oct-01 01:35 132 16.7
2020-Oct-01 01:30 132 16.7
2020-Oct-01 01:25 132 16.7
2020-Oct-01 01:20 132 16.7
2020-Oct-01 01:15 132 16.7
2020-Oct-01 01:10 132 16.7
2020-Oct-01 01:04 132 16.7
2020-Oct-01 00:59 132 17.2
2020-Oct-01 00:54 132 17.2
2020-Oct-01 00:49 132 17.2
2020-Oct-01 00:44 132 17.2
2020-Oct-01 00:39 132 17.2
2020-Oct-01 00:34 132 17.2
2020-Oct-01 00:29 132 17.2
2020-Oct-01 00:24 132 17.2
2020-Oct-01 00:18 132 17.8
2020-Oct-01 00:13 132 17.8
2020-Oct-01 00:07 132 17.8
2020-Oct-01 00:02 132 17.8
2020-Sep-30 23:57 132 17.8
2020-Sep-30 23:52 132 17.8
2020-Sep-30 23:47 132 18.3
2020-Sep-30 23:42 132 18.3
2020-Sep-30 23:37 132 18.9
2020-Sep-30 23:32 132 18.9
2020-Sep-30 23:27 132 18.9
2020-Sep-30 23:22 132 19.4
2020-Sep-30 23:17 132 20.0
2020-Sep-30 23:12 132 20.0
2020-Sep-30 23:07 132 20.0
2020-Sep-30 23:01 131 20.6
2020-Sep-30 22:56 122 20.6
2020-Sep-30 22:51 122 21.1
2020-Sep-30 22:46 122 21.7
2020-Sep-30 22:41 122 21.7
2020-Sep-30 22:35 122 22.2
2020-Sep-30 22:30 121 22.2
2020-Sep-30 22:25 095 22.8
2020-Sep-30 22:20 110 22.8
2020-Sep-30 22:15 091 22.8
2020-Sep-30 22:10 088 22.8
2020-Sep-30 22:05 170 0 gusting 1 22.8
2020-Sep-30 22:00 114 0 gusting 0 22.8
2020-Sep-30 21:55 115 23.3
2020-Sep-30 21:50 115 23.3
2020-Sep-30 21:40 096 23.3
2020-Sep-30 21:35 095 23.3
2020-Sep-30 21:30 158 0 gusting 1 23.3
2020-Sep-30 21:24 082 0 gusting 1 23.3
2020-Sep-30 21:19 096 0 gusting 1 23.3
2020-Sep-30 21:14 139 1 gusting 2 23.3
2020-Sep-30 21:09 113 0 gusting 1 23.9
2020-Sep-30 21:04 092 23.9
2020-Sep-30 20:59 096 23.9
2020-Sep-30 20:54 109 23.9
2020-Sep-30 20:49 071 0 gusting 0 23.9
2020-Sep-30 20:44 110 23.9
2020-Sep-30 20:39 104 0 gusting 2 23.9
2020-Sep-30 20:34 082 0 gusting 1 23.9
2020-Sep-30 20:29 142 0 gusting 2 23.9
2020-Sep-30 20:24 070 0 gusting 0 23.9
2020-Sep-30 20:19 064 0 gusting 1 24.4
2020-Sep-30 20:13 085 0 gusting 2 24.4
2020-Sep-30 20:08 100 24.4
2020-Sep-30 20:03 108 0 gusting 2 24.4
2020-Sep-30 19:58 098 24.4
2020-Sep-30 19:53 094 24.4
2020-Sep-30 19:48 132 24.4
2020-Sep-30 19:43 099 0 gusting 4 24.4
2020-Sep-30 19:38 103 1 gusting 4 24.4
2020-Sep-30 19:33 105 0 gusting 1 24.4
2020-Sep-30 19:27 066 2 gusting 4 23.9
2020-Sep-30 19:22 089 24.4
2020-Sep-30 19:17 099 24.4
2020-Sep-30 19:12 128 0 gusting 2 24.4
2020-Sep-30 19:07 120 25.0
2020-Sep-30 19:01 339 24.4
2020-Sep-30 18:56 097 0 gusting 1 25.0
2020-Sep-30 18:51 106 0 gusting 4 24.4
2020-Sep-30 18:46 281 1 gusting 1 25.0
2020-Sep-30 18:41 100 0 gusting 1 25.0
2020-Sep-30 18:36 100 25.0
2020-Sep-30 18:31 152 25.0
2020-Sep-30 18:26 131 25.0
2020-Sep-30 18:20 124 0 gusting 0 25.0
2020-Sep-30 18:15 287 24.4
2020-Sep-30 18:10 084 1 gusting 2 25.0
2020-Sep-30 18:05 087 0 gusting 0 25.0
2020-Sep-30 18:00 127 25.0
2020-Sep-30 17:55 005 0 gusting 1 25.0
2020-Sep-30 17:50 105 0 gusting 0 24.4
2020-Sep-30 17:44 053 1 gusting 1 25.0
2020-Sep-30 17:39 118 0 gusting 0 24.4
2020-Sep-30 17:34 108 24.4
2020-Sep-30 17:29 106 0 gusting 1 25.0
2020-Sep-30 17:21 142 2 gusting 4 25.0
2020-Sep-30 17:14 164 1 gusting 1 24.4
2020-Sep-30 17:09 100 25.0
2020-Sep-30 17:04 235 24.4
2020-Sep-30 16:59 173 0 gusting 0 23.9
2020-Sep-30 16:54 286 2 gusting 6 24.4
2020-Sep-30 16:49 082 24.4
2020-Sep-30 16:44 091 0 gusting 0 24.4
2020-Sep-30 16:38 094 23.9
2020-Sep-30 16:33 012 0 gusting 1 23.3
2020-Sep-30 16:28 012 0 gusting 1 23.3
2020-Sep-30 16:23 012 0 gusting 1 23.3
2020-Sep-30 16:18 244 1 gusting 2 23.3
2020-Sep-30 16:13 049 0 gusting 1 23.9
2020-Sep-30 16:08 092 23.3
2020-Sep-30 16:02 293 1 gusting 5 22.8
2020-Sep-30 15:57 007 22.8
2020-Sep-30 15:53 049 22.8
2020-Sep-30 15:47 320 0 gusting 4 22.2
2020-Sep-30 15:42 288 1 gusting 1 22.2
2020-Sep-30 15:37 291 1 gusting 1 22.8
2020-Sep-30 15:32 039 22.2
2020-Sep-30 15:27 341 0 gusting 1 21.7
2020-Sep-30 15:22 226 0 gusting 0 22.2
2020-Sep-30 15:17 038 0 gusting 1 21.7
2020-Sep-30 15:11 307 21.7
2020-Sep-30 15:06 287 0 gusting 5 21.7
2020-Sep-30 15:01 020 1 gusting 4 21.1
2020-Sep-30 14:56 026 0 gusting 0 21.7
2020-Sep-30 14:51 026 0 gusting 0 21.7
2020-Sep-30 14:46 323 21.7
2020-Sep-30 14:41 226 0 gusting 0 21.7
2020-Sep-30 14:36 292 0 gusting 1 21.1
2020-Sep-30 14:31 327 0 gusting 1 20.6
2020-Sep-30 14:26 317 19.4
2020-Sep-30 14:20 275 2 gusting 4 19.4
2020-Sep-30 14:15 310 0 gusting 2 19.4
2020-Sep-30 14:10 274 2 gusting 4 19.4
2020-Sep-30 14:05 324 1 gusting 4 19.4
2020-Sep-30 14:00 314 3 gusting 6 19.4
2020-Sep-30 13:55 024 19.4
2020-Sep-30 13:50 310 0 gusting 1 20.0
2020-Sep-30 13:45 293 0 gusting 2 20.0
2020-Sep-30 13:40 314 2 gusting 5 20.0
2020-Sep-30 13:35 304 3 gusting 4 20.0
2020-Sep-30 13:30 037 20.0
2020-Sep-30 13:25 320 1 gusting 4 19.4
2020-Sep-30 13:20 326 0 gusting 1 19.4
2020-Sep-30 13:09 298 1 gusting 2 18.9
2020-Sep-30 13:04 278 1 gusting 2 18.9
2020-Sep-30 12:59 289 18.3
2020-Sep-30 12:54 339 0 gusting 5 18.3
2020-Sep-30 12:49 343 0 gusting 1 18.3
2020-Sep-30 12:44 323 0 gusting 0 17.8
2020-Sep-30 12:39 315 0 gusting 4 17.2
2020-Sep-30 12:34 300 2 gusting 4 17.2
2020-Sep-30 12:29 297 0 gusting 0 16.7
2020-Sep-30 12:24 297 0 gusting 0 16.7
2020-Sep-30 12:19 289 0 gusting 2 16.7
2020-Sep-30 12:13 284 16.7
2020-Sep-30 12:08 298 0 gusting 0 16.1
2020-Sep-30 12:03 298 0 gusting 1 16.1
2020-Sep-30 11:58 294 0 gusting 0 16.1
2020-Sep-30 11:53 293 15.6
2020-Sep-30 11:48 293 15.6
2020-Sep-30 11:43 293 15.0
2020-Sep-30 11:38 293 15.0
2020-Sep-30 11:32 293 15.0
2020-Sep-30 11:27 293 15.0
2020-Sep-30 11:22 293 15.0
2020-Sep-30 11:17 293 15.6
2020-Sep-30 11:12 293 15.6
2020-Sep-30 11:07 293 15.6
2020-Sep-30 11:02 293 15.6
2020-Sep-30 10:57 293 15.6
2020-Sep-30 10:52 298 15.6
2020-Sep-30 10:47 298 0 gusting 0 15.6
2020-Sep-30 10:42 298 15.6
2020-Sep-30 10:36 298 0 gusting 0 16.1
2020-Sep-30 10:31 298 0 gusting 0 16.1
2020-Sep-30 10:26 298 16.1
2020-Sep-30 10:21 292 16.1
2020-Sep-30 10:15 292 16.1
2020-Sep-30 10:10 301 16.7
2020-Sep-30 10:05 307 0 gusting 0 16.7
2020-Sep-30 10:00 308 0 gusting 0 16.7
2020-Sep-30 09:55 310 0 gusting 0 16.7
2020-Sep-30 09:50 300 16.7
2020-Sep-30 09:45 299 0 gusting 2 16.7
2020-Sep-30 09:40 318 16.7
2020-Sep-30 09:35 294 16.7
2020-Sep-30 09:30 292 0 gusting 0 16.7
2020-Sep-30 09:25 287 16.7
2020-Sep-30 09:20 279 16.7
2020-Sep-30 09:15 284 0 gusting 0 16.7
2020-Sep-30 09:10 299 16.7
2020-Sep-30 09:05 310 16.7
2020-Sep-30 08:59 322 0 gusting 1 16.7
2020-Sep-30 08:54 288 0 gusting 1 16.7
2020-Sep-30 08:49 329 0 gusting 1 16.7
2020-Sep-30 08:44 288 17.2
2020-Sep-30 08:39 291 0 gusting 2 17.2
2020-Sep-30 08:34 289 17.2
2020-Sep-30 08:29 289 17.2
2020-Sep-30 08:24 287 0 gusting 0 17.2
2020-Sep-30 08:19 292 0 gusting 1 17.2
2020-Sep-30 08:14 319 1 gusting 2 17.2
2020-Sep-30 08:09 281 0 gusting 2 17.8
2020-Sep-30 08:04 294 0 gusting 2 17.8
2020-Sep-30 07:59 286 0 gusting 1 17.8
2020-Sep-30 07:54 303 17.8
2020-Sep-30 07:49 295 1 gusting 1 17.8
2020-Sep-30 07:43 315 1 gusting 1 17.8
2020-Sep-30 07:38 281 0 gusting 4 17.8
2020-Sep-30 07:33 300 0 gusting 0 17.8
2020-Sep-30 07:28 288 1 gusting 4 17.8
2020-Sep-30 07:23 283 2 gusting 2 17.8
2020-Sep-30 07:18 303 0 gusting 2 17.8
2020-Sep-30 07:13 283 0 gusting 2 17.8
2020-Sep-30 07:07 289 0 gusting 1 17.8
2020-Sep-30 06:59 303 0 gusting 1 17.8
2020-Sep-30 06:54 326 0 gusting 1 17.8
2020-Sep-30 06:49 290 3 gusting 4 17.8
2020-Sep-30 06:44 291 0 gusting 0 17.8
2020-Sep-30 06:39 294 1 gusting 2 17.8
2020-Sep-30 06:33 287 0 gusting 0 17.8
2020-Sep-30 06:28 278 0 gusting 1 17.8
2020-Sep-30 06:20 317 0 gusting 0 17.8
2020-Sep-30 06:15 323 17.8
2020-Sep-30 06:10 274 1 gusting 1 17.8
2020-Sep-30 06:05 298 17.8
2020-Sep-30 06:00 321 0 gusting 2 17.8
2020-Sep-30 05:55 302 0 gusting 1 17.8
2020-Sep-30 05:50 292 2 gusting 2 17.8
2020-Sep-30 05:45 302 2 gusting 4 17.8
2020-Sep-30 05:40 327 0 gusting 1 17.8
2020-Sep-30 05:35 279 0 gusting 1 17.8
2020-Sep-30 05:25 293 1 gusting 2 17.8
2020-Sep-30 05:19 287 0 gusting 2 17.8
2020-Sep-30 05:14 319 0 gusting 2 17.8
2020-Sep-30 05:09 311 0 gusting 4 17.8
2020-Sep-30 05:04 340 2 gusting 2 18.3
2020-Sep-30 04:59 303 1 gusting 2 18.3
2020-Sep-30 04:54 285 2 gusting 5 18.3
2020-Sep-30 04:49 285 0 gusting 2 18.3
2020-Sep-30 04:43 316 0 gusting 1 18.3
2020-Sep-30 04:37 275 0 gusting 2 18.3
2020-Sep-30 04:32 270 1 gusting 2 18.3
2020-Sep-30 04:26 294 2 gusting 4 18.3
2020-Sep-30 04:21 280 0 gusting 1 18.3
2020-Sep-30 04:16 275 0 gusting 0 18.3
2020-Sep-30 04:10 284 0 gusting 1 18.3
2020-Sep-30 04:05 313 0 gusting 0 18.3
2020-Sep-30 04:00 328 2 gusting 4 18.3
2020-Sep-30 03:55 293 1 gusting 1 18.3
2020-Sep-30 03:50 257 1 gusting 2 18.3
2020-Sep-30 03:45 325 18.3
2020-Sep-30 03:40 301 1 gusting 2 18.3
2020-Sep-30 03:35 300 0 gusting 2 18.3
2020-Sep-30 03:30 280 0 gusting 1 18.3
2020-Sep-30 03:25 293 0 gusting 0 18.3
2020-Sep-30 03:17 305 18.3
2020-Sep-30 03:11 303 0 gusting 0 18.3
2020-Sep-30 03:06 274 0 gusting 0 18.3
2020-Sep-30 03:01 290 0 gusting 0 18.3
2020-Sep-30 02:55 286 18.3
2020-Sep-30 02:51 261 0 gusting 1 18.3
2020-Sep-30 02:45 292 0 gusting 2 18.3
2020-Sep-30 02:40 287 0 gusting 0 18.3
2020-Sep-30 02:35 284 1 gusting 1 18.3
2020-Sep-30 02:30 292 1 gusting 1 18.3
2020-Sep-30 02:25 317 18.3
2020-Sep-30 02:20 293 0 gusting 0 18.3
2020-Sep-30 02:15 301 0 gusting 4 18.3
2020-Sep-30 02:10 300 18.3
2020-Sep-30 02:05 294 0 gusting 2 18.3
2020-Sep-30 02:00 293 2 gusting 2 18.3
2020-Sep-30 01:55 328 1 gusting 4 17.8
2020-Sep-30 01:50 289 0 gusting 1 17.8
2020-Sep-30 01:45 314 0 gusting 0 17.8
2020-Sep-30 01:39 260 0 gusting 2 18.3
2020-Sep-30 01:34 289 0 gusting 0 18.3
2020-Sep-30 01:29 289 18.3
2020-Sep-30 01:24 297 0 gusting 0 18.3
2020-Sep-30 01:19 265 1 gusting 1 18.3
2020-Sep-30 01:14 304 1 gusting 2 18.3
2020-Sep-30 01:09 259 0 gusting 1 18.3
2020-Sep-30 01:04 317 0 gusting 1 18.9
2020-Sep-30 00:59 311 0 gusting 4 18.9
2020-Sep-30 00:54 294 1 gusting 4 18.9
2020-Sep-30 00:49 335 1 gusting 1 18.9
2020-Sep-30 00:43 295 0 gusting 1 18.9
2020-Sep-30 00:38 298 0 gusting 4 18.9
2020-Sep-30 00:33 308 1 gusting 6 18.9
2020-Sep-30 00:28 295 2 gusting 4 18.9
2020-Sep-30 00:23 287 1 gusting 2 19.4
2020-Sep-30 00:18 329 3 gusting 6 20.0
2020-Sep-30 00:13 333 1 gusting 5 20.6
2020-Sep-30 00:08 260 2 gusting 6 20.6
2020-Sep-30 00:03 307 2 gusting 5 20.6
2020-Sep-29 23:57 330 0 gusting 2 20.6
2020-Sep-29 23:52 300 4 gusting 6 20.6
2020-Sep-29 23:47 312 3 gusting 5 20.6
2020-Sep-29 23:42 302 4 gusting 6 20.6
2020-Sep-29 23:37 328 3 gusting 4 20.6
2020-Sep-29 23:32 293 5 gusting 7 21.1
2020-Sep-29 23:27 291 6 gusting 8 21.1
2020-Sep-29 23:22 288 4 gusting 6 21.7
2020-Sep-29 23:17 306 2 gusting 7 22.2
2020-Sep-29 23:12 333 1 gusting 5 22.2
2020-Sep-29 23:07 307 5 gusting 6 22.8
2020-Sep-29 23:02 308 8 gusting 11 23.9
2020-Sep-29 22:57 295 6 gusting 15 27.8
2020-Sep-29 22:52 297 2 gusting 2 27.8
2020-Sep-29 22:47 331 1 gusting 2 27.8
2020-Sep-29 22:42 260 1 gusting 4 27.8
2020-Sep-29 22:37 174 0 gusting 1 27.8
2020-Sep-29 22:32 28.3
2020-Sep-29 22:27 284 0 gusting 1 28.3
2020-Sep-29 22:21 262 0 gusting 1 28.3
2020-Sep-29 22:16 284 0 gusting 2 28.3
2020-Sep-29 22:11 262 0 gusting 1 28.3
2020-Sep-29 22:06 291 1 gusting 1 28.3
2020-Sep-29 22:01 342 0 gusting 1 28.3
2020-Sep-29 21:56 267 28.3
2020-Sep-29 21:51 284 0 gusting 4 28.3
2020-Sep-29 21:46 254 28.3
2020-Sep-29 21:41 267 2 gusting 4 28.9
2020-Sep-29 21:36 277 2 gusting 4 28.9
2020-Sep-29 21:31 271 0 gusting 4 29.4
2020-Sep-29 21:26 285 0 gusting 2 29.4
2020-Sep-29 21:21 159 30.0
2020-Sep-29 21:16 255 0 gusting 1 30.0
2020-Sep-29 21:11 207 0 gusting 2 30.0
2020-Sep-29 21:06 279 30.0
2020-Sep-29 21:00 219 29.4
2020-Sep-29 20:55 146 29.4
2020-Sep-29 20:50 126 29.4
2020-Sep-29 20:45 294 0 gusting 1 29.4
2020-Sep-29 20:40 231 0 gusting 0 29.4
2020-Sep-29 20:35 165 0 gusting 1 30.0
2020-Sep-29 20:30 160 30.0
2020-Sep-29 20:25 159 30.0
2020-Sep-29 20:20 212 30.0
2020-Sep-29 20:15 163 1 gusting 2 30.0
2020-Sep-29 20:10 155 1 gusting 1 30.0
2020-Sep-29 20:05 222 1 gusting 1 29.4
2020-Sep-29 20:00 167 0 gusting 1 28.9
2020-Sep-29 19:55 194 0 gusting 1 28.9
2020-Sep-29 19:50 265 0 gusting 2 29.4
2020-Sep-29 19:45 191 0 gusting 2 29.4
2020-Sep-29 19:39 206 29.4
2020-Sep-29 19:34 216 0 gusting 0 29.4
2020-Sep-29 19:29 234 2 gusting 4 30.0
2020-Sep-29 19:24 211 0 gusting 2 30.0
2020-Sep-29 19:19 159 30.0
2020-Sep-29 19:14 287 30.6
2020-Sep-29 19:09 189 0 gusting 0 30.6
2020-Sep-29 19:04 220 2 gusting 4 30.6
2020-Sep-29 18:59 024 0 gusting 5 31.1
2020-Sep-29 18:54 226 0 gusting 1 31.7
2020-Sep-29 18:49 211 0 gusting 6 32.2
2020-Sep-29 18:44 176 31.7
2020-Sep-29 18:39 120 2 gusting 6 31.1
2020-Sep-29 18:34 173 1 gusting 2 31.7
2020-Sep-29 18:29 252 3 gusting 5 31.7
2020-Sep-29 18:24 208 0 gusting 6 31.7
2020-Sep-29 18:19 178 0 gusting 4 31.7
2020-Sep-29 18:14 177 0 gusting 2 32.2
2020-Sep-29 18:09 168 0 gusting 6 32.2
2020-Sep-29 18:04 198 0 gusting 1 32.2
2020-Sep-29 17:58 109 2 gusting 5 31.1
2020-Sep-29 17:53 178 30.0
2020-Sep-29 17:48 280 1 gusting 1 30.0
2020-Sep-29 17:43 198 0 gusting 1 30.6
2020-Sep-29 17:38 291 1 gusting 2 31.1
2020-Sep-29 17:33 254 1 gusting 4 30.6
2020-Sep-29 17:28 158 30.0
2020-Sep-29 17:23 296 1 gusting 2 30.6
2020-Sep-29 17:18 276 1 gusting 2 30.6
2020-Sep-29 17:13 194 2 gusting 4 31.1
2020-Sep-29 17:08 268 0 gusting 2 30.0
2020-Sep-29 17:03 195 1 gusting 5 30.0
2020-Sep-29 16:58 246 1 gusting 1 30.0
2020-Sep-29 16:53 123 30.6
2020-Sep-29 16:47 142 1 gusting 6 30.6
2020-Sep-29 16:42 108 30.6
2020-Sep-29 16:37 180 0 gusting 1 30.6
2020-Sep-29 16:32 216 2 gusting 4 30.0
2020-Sep-29 16:27 238 0 gusting 1 30.0
2020-Sep-29 16:22 284 1 gusting 2 30.0
2020-Sep-29 16:17 284 0 gusting 1 30.0
2020-Sep-29 16:12 192 0 gusting 4 30.0
2020-Sep-29 16:07 292 1 gusting 1 29.4
2020-Sep-29 16:01 250 0 gusting 5 29.4
2020-Sep-29 15:56 191 0 gusting 1 30.0
2020-Sep-29 15:51 264 0 gusting 6 30.0
2020-Sep-29 15:46 162 0 gusting 1 28.9
2020-Sep-29 15:41 147 28.9
2020-Sep-29 15:36 169 0 gusting 4 29.4
2020-Sep-29 15:31 229 0 gusting 2 29.4
2020-Sep-29 15:26 217 1 gusting 2 28.9
2020-Sep-29 15:21 286 0 gusting 1 28.3
2020-Sep-29 15:16 192 0 gusting 1 28.3
2020-Sep-29 15:10 227 1 gusting 1 27.8
2020-Sep-29 15:05 195 27.8
2020-Sep-29 15:00 261 0 gusting 1 27.8